| time (UTC) | temp C | wind direction | speed KPH | gust KPH | rain 1hr cm | rain 24hr cm | rain mn cm | humidity % | barometer mb |
| 20260507090024 | 23 | 0.0 | 0.0 | 0.00 | 2.03 | 0.08 | 93 | ||
| 20260507085030 | 23 | 0.0 | 0.0 | 0.00 | 2.03 | 0.08 | 93 | ||
| 20260507084018 | 23 | 0.0 | 0.0 | 0.00 | 2.03 | 0.08 | 93 | ||
| 20260507083044 | 23 | 0.0 | 0.0 | 0.00 | 2.03 | 0.08 | 93 | ||
| 20260507082030 | 23 | 270 | 0.0 | 3.2 | 0.00 | 2.03 | 0.08 | 93 | |
| 20260507081018 | 23 | 0.0 | 0.0 | 0.00 | 2.03 | 0.08 | 93 | ||
| 20260507080023 | 23 | 0.0 | 0.0 | 0.00 | 2.03 | 0.08 | 93 | ||
| 20260507075029 | 23 | 0.0 | 0.0 | 0.00 | 2.03 | 0.08 | 92 | ||
| 20260507074017 | 23 | 0.0 | 0.0 | 0.00 | 2.03 | 0.08 | 92 | ||
| 20260507073019 | 23 | 0.0 | 0.0 | 0.00 | 2.03 | 0.08 | 92 | ||
| 20260507072031 | 23 | 0.0 | 0.0 | 0.00 | 2.03 | 0.08 | 91 | ||
| 20260507071017 | 23 | 0.0 | 0.0 | 0.00 | 2.03 | 0.08 | 91 | ||
| 20260507070025 | 23 | 0.0 | 0.0 | 0.00 | 2.03 | 0.08 | 91 | ||
| 20260507065031 | 23 | 0.0 | 0.0 | 0.00 | 2.03 | 0.08 | 91 | ||
| 20260507064018 | 23 | 0.0 | 0.0 | 0.00 | 2.03 | 0.08 | 91 | ||
| 20260507063024 | 23 | 0.0 | 0.0 | 0.08 | 2.03 | 0.08 | 90 | ||
| 20260507062030 | 23 | 0.0 | 0.0 | 0.08 | 2.03 | 0.08 | 90 | ||
| 20260507061018 | 23 | 0.0 | 1.6 | 0.08 | 2.03 | 0.08 | 90 | ||
| 20260507060023 | 23 | 0.0 | 0.0 | 0.08 | 2.03 | 0.08 | 90 | ||
| 20260507055050 | 23 | 11 | 0.0 | 3.2 | 0.08 | 2.03 | 0.08 | 90 | |
| 20260507054017 | 23 | 0.0 | 0.0 | 0.08 | 2.03 | 0.08 | 90 | ||
| 20260507053023 | 23 | 113 | 0.0 | 3.2 | 0.00 | 1.96 | 0.00 | 90 | |
| 20260507052030 | 23 | 68 | 0.0 | 1.6 | 0.00 | 1.96 | 0.00 | 90 | |
| 20260507051017 | 24 | 0.0 | 1.6 | 0.20 | 1.96 | 0.00 | 90 | ||
| 20260507050024 | 24 | 0.0 | 0.0 | 0.20 | 1.96 | 0.00 | 90 | ||
| 20260507045030 | 24 | 0.0 | 0.0 | 0.20 | 1.96 | 1.96 | 89 | ||
| 20260507044018 | 24 | 0.0 | 0.0 | 0.20 | 1.96 | 1.96 | 89 | ||
| 20260507043044 | 24 | 0.0 | 0.0 | 0.20 | 1.96 | 1.96 | 89 | ||
| 20260507042030 | 24 | 34 | 1.6 | 4.8 | 0.33 | 1.96 | 1.96 | 89 | |
| 20260507041018 | 24 | 0.0 | 0.0 | 0.48 | 1.75 | 1.75 | 88 | ||
| 20260507040024 | 24 | 0.0 | 1.6 | 0.76 | 1.75 | 1.75 | 88 | ||
| 20260507035050 | 24 | 280 | 1.6 | 3.2 | 0.91 | 1.75 | 1.75 | 88 | |
| 20260507034038 | 24 | 291 | 1.6 | 4.8 | 1.04 | 1.80 | 1.75 | 87 | |
| 20260507033018 | 24 | 135 | 0.0 | 3.2 | 1.65 | 1.85 | 1.75 | 87 | |
| 20260507032029 | 25 | 314 | 1.6 | 3.2 | 1.52 | 1.85 | 1.63 | 85 | |
| 20260507031019 | 25 | 4 | 1.6 | 3.2 | 1.17 | 1.55 | 1.27 | 85 | |
| 20260507030017 | 25 | 292 | 1.6 | 4.8 | 0.89 | 1.32 | 0.99 | 84 | |
| 20260507025027 | 25 | 207 | 0.0 | 3.2 | 0.74 | 1.22 | 0.84 | 83 | |
| 20260507024019 | 25 | 194 | 1.6 | 4.8 | 0.61 | 1.09 | 0.71 | 82 | |
| 20260507023024 | 26 | 91 | 3.2 | 8.0 | 0.00 | 0.48 | 0.10 | 80 | |
| 20260507022030 | 26 | 0.0 | 0.0 | 0.00 | 0.48 | 0.10 | 80 | ||
| 20260507021046 | 26 | 132 | 0.0 | 3.2 | 0.00 | 0.48 | 0.10 | 80 | |
| 20260507020018 | 26 | 90 | 0.0 | 1.6 | 0.00 | 0.99 | 0.10 | 81 | |
| 20260507015017 | 26 | 105 | 0.0 | 1.6 | 0.00 | 0.99 | 0.10 | 81 | |
| 20260507014037 | 26 | 123 | 1.6 | 3.2 | 0.00 | 0.99 | 0.10 | 81 | |
| 20260507013023 | 26 | 109 | 1.6 | 3.2 | 0.00 | 0.99 | 0.10 | 81 | |
| 20260507012029 | 26 | 118 | 1.6 | 4.8 | 0.00 | 0.99 | 0.10 | 80 | |
| 20260507011018 | 26 | 78 | 3.2 | 8.0 | 0.00 | 0.99 | 0.10 | 79 | |
| 20260507010025 | 27 | 106 | 1.6 | 3.2 | 0.00 | 0.99 | 0.10 | 77 | |
| 20260507005018 | 27 | 0.0 | 0.0 | 0.00 | 0.99 | 0.10 | 75 | ||
| 20260507004018 | 27 | 121 | 1.6 | 4.8 | 0.00 | 0.99 | 0.10 | 73 | |
| 20260507003024 | 27 | 109 | 1.6 | 3.2 | 0.00 | 0.99 | 0.10 | 73 | |
| 20260507002030 | 27 | 129 | 1.6 | 4.8 | 0.00 | 0.99 | 0.10 | 73 | |
| 20260507001018 | 27 | 88 | 1.6 | 4.8 | 0.00 | 1.02 | 0.10 | 72 | |
| 20260507000044 | 27 | 97 | 0.0 | 3.2 | 0.00 | 1.14 | 0.10 | 71 | |
| 20260506235025 | 27 | 183 | 0.0 | 3.2 | 0.00 | 1.17 | 0.10 | 72 | |
| 20260506234017 | 27 | 0.0 | 0.0 | 0.00 | 1.17 | 0.10 | 72 | ||
| 20260506233023 | 28 | 0.0 | 0.0 | 0.00 | 1.17 | 0.10 | 71 | ||
| 20260506232029 | 28 | 113 | 0.0 | 1.6 | 0.00 | 1.17 | 0.10 | 73 | |
| 20260506231019 | 28 | 279 | 0.0 | 3.2 | 0.00 | 1.17 | 0.10 | 72 | |
| 20260506230025 | 28 | 0.0 | 0.0 | 0.00 | 1.17 | 0.10 | 69 | ||
| 20260506225031 | 28 | 0.0 | 0.0 | 0.00 | 1.17 | 0.10 | 68 | ||
| 20260506224018 | 29 | 63 | 0.0 | 3.2 | 0.00 | 1.17 | 0.10 | 66 | |
| 20260506223024 | 29 | 161 | 1.6 | 6.4 | 0.00 | 1.17 | 0.10 | 66 | |
| 20260506222026 | 30 | 39 | 1.6 | 6.4 | 0.00 | 1.17 | 0.10 | 67 | |
| 20260506221038 | 29 | 21 | 3.2 | 4.8 | 0.00 | 1.17 | 0.10 | 67 | |
| 20260506220024 | 30 | 106 | 1.6 | 4.8 | 0.00 | 1.17 | 0.10 | 67 | |
| 20260506215029 | 30 | 351 | 4.8 | 6.4 | 0.00 | 1.17 | 0.10 | 68 | |
| 20260506214017 | 30 | 300 | 3.2 | 4.8 | 0.00 | 1.17 | 0.10 | 67 | |
| 20260506213023 | 30 | 249 | 1.6 | 4.8 | 0.00 | 1.17 | 0.10 | 69 | |
| 20260506212018 | 29 | 38 | 1.6 | 4.8 | 0.00 | 1.17 | 0.10 | 68 | |
| 20260506211017 | 29 | 350 | 1.6 | 3.2 | 0.00 | 1.17 | 0.10 | 69 | |
| 20260506210045 | 29 | 51 | 0.0 | 3.2 | 0.00 | 1.17 | 0.10 | 70 | |
| 20260506205027 | 29 | 283 | 1.6 | 3.2 | 0.00 | 1.17 | 0.10 | 71 | |
| 20260506204018 | 30 | 0.0 | 0.0 | 0.00 | 1.17 | 0.10 | 67 | ||
| 20260506203024 | 30 | 26 | 1.6 | 3.2 | 0.00 | 1.17 | 0.10 | 64 | |
| 20260506202030 | 30 | 117 | 1.6 | 4.8 | 0.00 | 1.17 | 0.10 | 64 | |
| 20260506201038 | 30 | 261 | 3.2 | 4.8 | 0.00 | 1.17 | 0.10 | 66 | |
| 20260506200018 | 30 | 127 | 1.6 | 3.2 | 0.00 | 1.17 | 0.10 | 64 | |
| 20260506195029 | 31 | 80 | 3.2 | 6.4 | 0.00 | 1.17 | 0.10 | 63 | |
| 20260506194038 | 30 | 188 | 3.2 | 4.8 | 0.00 | 1.17 | 0.10 | 64 | |
| 20260506193017 | 30 | 0.0 | 1.6 | 0.00 | 1.17 | 0.10 | 66 | ||
| 20260506192017 | 30 | 61 | 3.2 | 6.4 | 0.00 | 1.17 | 0.10 | 64 | |
| 20260506191017 | 30 | 53 | 0.0 | 1.6 | 0.10 | 1.17 | 0.10 | 66 | |
| 20260506190019 | 30 | 154 | 3.2 | 8.0 | 0.10 | 1.17 | 0.10 | 63 | |
| 20260506185027 | 30 | 91 | 3.2 | 6.4 | 0.10 | 1.17 | 0.10 | 66 | |
| 20260506184018 | 29 | 186 | 3.2 | 6.4 | 0.10 | 1.17 | 0.10 | 70 | |
| 20260506183026 | 28 | 292 | 1.6 | 6.4 | 0.10 | 1.17 | 0.10 | 75 | |
| 20260506182050 | 28 | 135 | 0.0 | 1.6 | 0.10 | 1.17 | 0.10 | 72 | |
| 20260506181018 | 30 | 112 | 1.6 | 4.8 | 0.00 | 1.07 | 0.00 | 68 | |
| 20260506180044 | 30 | 247 | 1.6 | 4.8 | 0.00 | 1.07 | 0.00 | 70 | |
| 20260506175050 | 30 | 203 | 1.6 | 4.8 | 0.00 | 1.07 | 0.00 | 70 | |
| 20260506174017 | 30 | 157 | 1.6 | 3.2 | 0.00 | 1.07 | 0.00 | 68 | |
| 20260506173017 | 30 | 149 | 1.6 | 4.8 | 0.00 | 1.07 | 0.00 | 69 | |
| 20260506172029 | 30 | 165 | 3.2 | 8.0 | 0.00 | 1.07 | 0.00 | 68 | |
| 20260506171019 | 30 | 103 | 1.6 | 4.8 | 0.00 | 1.07 | 0.00 | 71 | |
| 20260506170025 | 29 | 152 | 1.6 | 4.8 | 0.00 | 1.07 | 0.00 | 73 | |
| 20260506165027 | 29 | 116 | 1.6 | 3.2 | 0.00 | 1.07 | 0.00 | 73 | |
| 20260506164018 | 29 | 146 | 1.6 | 4.8 | 0.00 | 1.07 | 0.00 | 73 | |
| 20260506163024 | 29 | 56 | 3.2 | 6.4 | 0.00 | 1.07 | 0.00 | 74 | |
| 20260506162026 | 28 | 198 | 1.6 | 4.8 | 0.00 | 1.07 | 0.00 | 78 | |
| 20260506161018 | 28 | 278 | 1.6 | 3.2 | 0.00 | 1.07 | 0.00 | 78 | |
| 20260506160023 | 28 | 98 | 0.0 | 3.2 | 0.00 | 1.07 | 0.00 | 76 | |
| 20260506155050 | 28 | 82 | 3.2 | 6.4 | 0.00 | 1.07 | 0.00 | 75 | |
| 20260506154017 | 28 | 139 | 3.2 | 4.8 | 0.00 | 1.07 | 0.00 | 77 | |
| 20260506153017 | 28 | 138 | 3.2 | 6.4 | 0.00 | 1.07 | 0.00 | 76 | |
| 20260506152025 | 28 | 7 | 4.8 | 6.4 | 0.00 | 1.07 | 0.00 | 79 | |
| 20260506151024 | 27 | 322 | 4.8 | 9.7 | 0.00 | 1.07 | 0.00 | 86 | |
| 20260506150019 | 27 | 291 | 0.0 | 3.2 | 0.00 | 1.07 | 0.00 | 88 | |
| 20260506145026 | 26 | 145 | 1.6 | 4.8 | 0.00 | 1.07 | 0.00 | 89 | |
| 20260506144046 | 26 | 5 | 1.6 | 4.8 | 0.00 | 1.07 | 0.00 | 89 | |
| 20260506143024 | 26 | 325 | 1.6 | 3.2 | 0.00 | 1.07 | 0.00 | 89 | |
| 20260506142038 | 26 | 279 | 1.6 | 4.8 | 0.00 | 1.07 | 0.00 | 90 | |
| 20260506141017 | 25 | 0.0 | 0.0 | 0.00 | 1.07 | 0.00 | 90 | ||
| 20260506140023 | 26 | 0.0 | 0.0 | 0.00 | 1.07 | 0.00 | 90 | ||
| 20260506135025 | 26 | 276 | 1.6 | 4.8 | 0.00 | 1.07 | 0.00 | 90 | |
| 20260506134017 | 25 | 203 | 0.0 | 1.6 | 0.00 | 1.07 | 0.00 | 90 | |
| 20260506133017 | 25 | 309 | 3.2 | 4.8 | 0.00 | 1.07 | 0.00 | 90 | |
| 20260506132045 | 25 | 0.0 | 0.0 | 0.00 | 1.09 | 0.00 | 91 | ||
| 20260506131018 | 25 | 284 | 1.6 | 4.8 | 0.00 | 1.09 | 0.00 | 91 | |
| 20260506130045 | 25 | 248 | 0.0 | 3.2 | 0.00 | 1.09 | 0.00 | 91 | |
| 20260506125026 | 24 | 272 | 1.6 | 3.2 | 0.00 | 1.09 | 0.00 | 94 | |
| 20260506124038 | 24 | 225 | 0.0 | 1.6 | 0.00 | 1.09 | 0.00 | 95 | |
| 20260506123044 | 23 | 0.0 | 0.0 | 0.00 | 1.09 | 0.00 | 95 | ||
| 20260506122018 | 23 | 0.0 | 0.0 | 0.00 | 1.09 | 0.00 | 95 | ||
| 20260506121018 | 23 | 270 | 0.0 | 3.2 | 0.00 | 1.09 | 0.00 | 94 | |
| 20260506120046 | 23 | 309 | 1.6 | 3.2 | 0.00 | 1.09 | 0.00 | 95 | |
| 20260506115049 | 23 | 0.0 | 0.0 | 0.00 | 1.09 | 0.00 | 95 | ||
| 20260506114037 | 23 | 0.0 | 0.0 | 0.00 | 1.09 | 0.00 | 96 | ||
| 20260506113023 | 23 | 0.0 | 0.0 | 0.00 | 1.09 | 0.00 | 96 | ||
| 20260506112049 | 23 | 0.0 | 0.0 | 0.00 | 1.09 | 0.00 | 95 | ||
| 20260506111019 | 22 | 0.0 | 0.0 | 0.00 | 1.09 | 0.00 | 95 | ||
| 20260506110024 | 22 | 0.0 | 0.0 | 0.00 | 1.09 | 0.00 | 95 | ||
| 20260506105030 | 22 | 0.0 | 0.0 | 0.00 | 1.09 | 0.00 | 94 | ||
| 20260506104018 | 23 | 0.0 | 0.0 | 0.00 | 1.09 | 0.00 | 94 | ||
| 20260506103044 | 23 | 0.0 | 0.0 | 0.00 | 1.09 | 0.00 | 94 | ||
| 20260506102030 | 23 | 0.0 | 0.0 | 0.00 | 1.09 | 0.00 | 95 | ||
| 20260506101018 | 23 | 0.0 | 0.0 | 0.00 | 1.09 | 0.00 | 95 | ||
| 20260506100023 | 23 | 0.0 | 0.0 | 0.00 | 1.09 | 0.00 | 94 | ||
| 20260506095029 | 23 | 0.0 | 0.0 | 0.00 | 1.09 | 0.00 | 94 | ||
| 20260506094017 | 23 | 0.0 | 0.0 | 0.00 | 1.09 | 0.00 | 94 | ||
| 20260506093029 | 23 | 0.0 | 0.0 | 0.00 | 1.09 | 0.00 | 94 | ||
| 20260506092049 | 23 | 0.0 | 0.0 | 0.00 | 1.17 | 0.00 | 94 | ||
| 20260506091017 | 23 | 0.0 | 0.0 | 0.00 | 1.17 | 0.00 | 94 |